Погода в Камбре

Франция     50°10′39″N   3°14′41″E
темп.,
°C
ветер,
м/с
пор.,
м/с
влажн.,
%
обл.,
%
осадки,
мм/ч
давл.,
гПа
погр.,
м
15 апреля, чт
чт1523:00+1с39855 0.0 1031198
02:000ссв37935 0.0 1031136
05:00−1ссв359412 0.0 103194
08:000ссв26905 0.0 1032151
11:00+6ссв45667 0.0 10311069
14:00+9ссв445485 0.6 10301574
17:00+9ссв555455 0.9 10281536
20:00+6св487450 1.1 1028211
16 апреля, пт
пт1623:00+2ссв36825 0.0 1030105
02:00+1св348268 0.0 102959
05:000св33915 0.0 102950
08:00+1ссв36855 0.0 1030163
11:00+7св57615 0.0 1029941
14:00+10св674995 0.0 10281912
17:00+10св574995 0.0 10271734
20:00+8ссв596992 0.0 1027449
17 апреля, сб
сб1723:00+3с39875 0.0 1028199
02:00+2с37915 0.0 1028115
05:00+1с36925 0.0 1027112
08:00+2ссв38866 0.0 1027236
11:00+8св57605 0.0 1027836
14:00+11ссв56525 0.0 10251544
17:00+12ссв565045 0.0 10241784
20:00+9с59735 0.0 1024350
18 апреля, вс
вс1823:00+4ссз37856 0.0 1026133
02:00+3ссз348659 0.0 102573
05:00+2с349145 0.0 102561
08:00+4с2588100 0.0 1025145
11:00+9с337070 0.0 1025619
14:00+12с2259100 0.0 10241321
17:00+12с2354100 0.0 10231384
20:00+10ссв2369100 0.1 102361
19 апреля, пн
пн1923:00+5ссв3383100 0.0 102454
02:00+4с228635 0.0 102431
05:00+4ссз118721 0.0 102313
08:00+6св238491 0.0 1023111
11:00+10св237696 0.0 1022370
14:00+12всв2266100 0.2 1021539
17:00+13всв225689 0.0 1019962
20:00+11св22725 0.0 101924